Theta_e
287 283 282 284 283 284 284 282 282 283 284 283 282 283 286 287 287 287 286 285 286 288 289 290 290 291 292 293 294 293 293 292 293 294 295 295 295 295 296 297 298 299 299 299
283 282 286 285 284 283 282 281 280 282 284 283 281 282 286 286 286 285 285 285 285 287 286 287 289 291 293 293 291 291 292 292 293 293 293 294 294 294 295 296 298 299 298 298
282 284 285 285 282 281 280 280 281 282 282 282 280 281 284 286 286 285 285 286 286 285 286 287 289 289 290 290 290 291 292 292 292 293 293 294 294 295 295 296 296 296 297 297
281 283 283 282 281 282 280 282 282 281 279 275 280 276 282 284 284 284 284 284 285 286 287 288 288 288 289 288 290 292 292 292 292 294 294 294 293 292 293 294 294 294 295 295
282 280 280 280 281 283 281 282 281 281 275 272 275 274 280 282 282 283 283 284 285 286 287 287 288 288 288 289 290 290 291 293 294 294 294 293 292 292 293 293 292 293 293 294
280 282 281 281 282 282 283 282 281 279 275 269 273 276 279 279 282 283 284 284 285 286 287 288 288 288 288 289 289 290 291 293 293 293 292 292 291 291 291 291 291 291 291 292
280 280 281 282 280 282 281 279 269 269 267 272 275 272 279 283 282 283 283 284 285 286 286 287 287 288 289 289 289 290 292 292 292 292 292 291 291 291 290 290 290 289 290 290
276 274 280 282 281 279 279 279 274 268 270 272 274 272 280 282 282 283 284 284 285 285 286 287 287 288 289 289 289 291 292 291 291 291 291 291 291 291 291 290 290 289 289 290
275 276 280 282 282 283 279 276 281 272 262 269 274 277 282 282 281 282 283 284 284 285 286 286 287 288 288 288 288 291 292 291 291 291 291 290 290 290 290 290 290 289 290 290
284 280 281 282 284 284 280 282 277 276 268 266 271 272 279 279 280 282 283 285 285 285 286 287 287 287 287 287 289 292 291 291 290 290 290 290 290 291 290 290 289 289 290 290
283 285 279 284 280 279 279 278 279 281 280 273 270 276 281 280 281 282 284 286 286 286 286 287 287 286 286 286 288 289 289 289 289 289 289 289 290 290 290 289 289 289 289 289
283 282 273 276 279 281 281 281 283 279 278 276 276 276 283 282 282 284 285 286 287 287 286 286 286 285 285 285 286 286 287 287 288 288 288 289 289 289 289 289 289 290 289 290
282 277 268 272 276 278 277 279 281 281 281 276 276 277 282 282 283 286 286 286 286 285 284 285 285 285 286 286 285 285 285 286 287 288 288 288 288 288 288 288 288 288 289 289
285 278 273 272 274 277 275 277 280 280 273 275 278 277 279 281 283 285 285 286 284 283 283 285 285 285 285 285 284 284 285 285 286 287 287 286 287 287 287 287 287 287 288 288
281 271 271 271 274 275 276 277 277 277 278 274 278 279 281 283 284 285 286 284 283 282 282 284 284 284 284 284 284 284 284 285 285 285 285 285 286 286 286 287 287 287 288 287
280 269 269 267 269 274 276 279 277 277 277 276 276 277 283 285 284 283 284 283 282 283 282 283 284 284 284 284 284 284 284 284 285 285 286 287 286 285 287 287 287 287 287 287
279 274 270 273 267 267 270 276 277 277 276 278 275 281 282 282 283 284 283 283 283 283 282 281 283 283 284 283 284 284 284 284 284 284 285 286 285 286 285 286 286 286 286 286
279 276 275 271 268 268 276 275 277 279 281 278 280 280 282 283 284 285 283 284 282 281 281 282 282 282 282 283 284 284 283 282 281 280 283 284 283 285 285 285 285 285 286 285
282 279 273 272 266 271 276 275 275 275 275 280 281 283 283 282 281 281 284 284 284 282 281 282 283 282 278 280 282 280 278 277 276 278 277 279 281 282 282 284 284 284 284 284
279 280 276 266 265 264 274 279 279 279 273 280 281 282 282 280 276 280 282 283 282 278 278 280 280 280 277 276 277 277 277 275 275 277 278 279 279 280 279 284 284 283 283 283
272 275 273 273 271 270 275 276 278 269 273 278 279 280 279 279 280 281 281 280 280 274 276 277 277 280 279 275 278 275 273 275 277 276 275 277 279 278 279 284 283 284 283 284
269 270 271 271 271 268 277 275 275 278 279 279 279 280 280 281 281 282 280 281 280 278 276 277 277 277 277 279 278 275 274 276 275 274 273 275 276 277 279 278 279 282 284 283
270 275 271 274 274 280 277 279 281 280 280 280 280 280 280 280 280 280 280 281 281 278 278 276 276 276 277 278 279 279 280 276 274 273 273 278 280 278 279 278 277 282 283 283
272 275 274 276 279 278 280 279 280 279 281 283 283 280 279 279 279 280 281 281 281 281 280 276 278 276 277 277 278 279 278 277 275 275 276 275 279 276 277 280 281 282 279 282
275 276 274 274 279 280 282 283 283 283 281 282 282 281 281 281 281 281 280 280 281 281 281 281 280 280 280 279 278 278 278 277 277 276 277 277 278 276 277 278 279 280 279 283
276 275 274 274 278 278 280 282 282 281 281 282 282 281 282 282 281 280 280 280 280 280 279 277 277 276 278 276 277 278 274 275 275 277 278 279 277 276 277 278 279 283 284 285
Wind_Speed
2 3 8 13 7 3 5 3 4 2 2 1 6 9 19 7 6 6 5 5 6 4 3 3 5 6 8 7 9 7 8 4 3 3 3 2 2 2 2 3 5 6 6 7
3 8 7 6 5 4 3 3 6 3 1 2 3 13 18 5 2 2 5 5 4 2 4 5 7 5 4 8 8 7 7 6 5 3 2 2 1 1 1 2 5 5 8 7
8 2 4 5 4 6 4 6 5 5 1 2 5 8 4 1 1 3 4 3 2 4 6 6 7 7 8 8 7 7 6 6 5 4 2 2 2 1 2 4 4 6 7 8
7 3 6 5 5 7 4 6 5 5 4 5 2 7 5 3 1 2 3 4 4 6 5 5 7 6 7 6 6 7 6 6 6 5 5 4 2 2 1 5 5 6 6 8
5 6 5 4 5 7 3 4 5 3 4 4 4 3 8 1 3 3 3 4 5 5 7 8 7 7 6 6 6 6 6 6 6 6 5 3 3 2 3 5 8 7 7 7
4 1 3 3 3 1 9 6 6 4 3 2 5 6 6 6 6 4 3 4 5 6 7 7 6 7 6 5 6 5 6 5 4 4 5 5 4 5 6 7 7 7 7 6
2 4 3 4 6 4 2 6 2 4 3 8 1 2 9 4 5 6 9 7 6 6 7 7 8 7 6 6 5 5 5 4 4 4 4 3 3 4 6 6 6 9 8 7
6 5 8 5 5 8 6 6 7 9 5 4 4 8 7 4 2 5 6 7 6 6 5 7 7 6 7 6 5 5 5 4 3 3 4 4 4 3 4 5 6 6 7 8
5 3 1 0 2 3 6 6 3 8 1 3 4 7 7 4 3 4 7 6 7 7 6 7 6 5 5 5 4 5 4 3 2 3 3 3 3 4 5 6 6 6 8 8
4 2 1 1 1 2 3 4 3 2 2 4 4 6 6 6 8 6 8 8 7 7 7 6 5 6 4 4 4 4 3 2 2 3 3 1 3 4 4 6 8 8 9 10
4 6 2 3 7 9 3 2 2 1 3 5 1 7 5 10 10 11 9 9 9 8 7 6 6 5 5 4 4 4 4 4 4 3 1 3 4 5 4 5 7 8 8 10
4 2 5 9 1 2 1 7 6 3 5 1 1 8 1 7 10 9 8 8 7 6 6 6 6 5 4 4 4 4 4 4 3 1 2 3 5 5 6 7 8 8 10 9
4 3 1 7 5 4 5 6 4 2 2 7 6 7 3 6 11 7 9 7 6 5 6 5 5 6 5 4 2 2 0 2 2 2 2 4 5 6 7 8 8 9 10 10
3 2 7 9 6 4 5 6 11 10 5 6 12 3 1 6 15 9 7 7 7 7 8 6 5 5 3 2 3 2 2 2 2 2 3 4 5 6 6 8 9 9 9 10
5 6 3 3 2 1 3 4 9 15 13 9 7 11 8 14 15 19 12 7 7 8 8 8 7 7 6 5 4 3 3 3 2 3 3 6 5 5 6 8 7 8 9 9
1 5 3 4 3 3 4 8 9 11 4 8 4 11 5 5 4 5 10 9 9 9 10 10 8 7 7 6 6 4 4 5 4 4 5 6 5 4 6 7 8 9 9 9
2 4 3 10 1 3 5 16 10 7 7 9 12 9 6 6 9 13 11 10 10 11 13 10 10 9 7 7 6 6 6 4 5 5 5 5 5 4 6 6 7 8 9 10
5 3 3 4 3 12 9 3 4 15 14 11 7 7 8 7 10 8 5 8 9 10 10 11 9 6 6 4 5 3 4 4 5 4 5 5 4 4 6 5 6 7 8 10
15 8 5 4 5 6 8 6 8 9 9 11 18 17 10 5 2 9 9 9 11 10 9 10 8 6 4 6 5 4 3 4 3 6 6 6 5 5 5 5 8 7 7 9
12 14 10 2 5 10 10 11 9 6 15 11 13 14 11 8 3 8 5 8 7 6 6 8 8 5 5 4 5 4 3 3 6 6 7 5 5 5 5 4 7 6 8 8
4 7 16 16 15 9 7 4 5 8 8 5 6 7 8 7 7 3 1 3 6 4 8 6 6 8 6 5 5 4 3 5 5 3 3 4 5 6 5 3 3 4 6 7
9 6 9 8 10 20 6 3 13 5 3 4 5 7 8 7 5 3 4 6 7 8 6 6 6 5 4 5 5 4 5 5 3 2 3 4 5 5 4 4 2 4 5 6
8 11 7 8 6 4 6 5 6 3 6 6 6 7 8 7 7 7 7 7 7 6 5 4 5 4 4 5 5 5 7 3 2 3 5 5 6 5 5 4 4 4 4 4
5 1 7 8 11 8 8 4 5 4 7 4 6 8 9 8 9 8 7 6 6 6 5 4 5 2 4 6 6 9 5 5 3 6 6 5 7 5 5 4 4 5 4 4
10 10 8 7 6 8 14 14 13 8 4 6 5 6 11 10 10 9 8 7 7 5 4 5 5 5 7 3 5 6 7 5 6 6 7 6 6 6 5 6 6 6 5 5
11 15 11 8 8 3 6 4 2 6 8 11 10 6 7 7 8 7 7 6 6 6 4 4 4 4 7 5 6 8 5 5 5 5 5 6 4 3 4 4 5 12 13 11
Wind_Direction
2 124 203 208 191 136 130 182 224 230 107 300 239 270 279 281 283 298 316 329 326 299 319 170 118 117 111 101 114 114 111 88 89 70 74 48 42 15 39 36 27 16 8 350
40 230 224 108 154 159 156 160 250 287 129 193 322 275 277 267 245 331 315 334 339 77 70 94 112 113 112 124 114 108 93 80 69 83 86 81 46 42 355 20 0 359 344 338
175 198 114 146 149 157 206 186 199 206 170 63 331 284 289 196 110 18 13 341 21 130 122 106 113 124 120 118 121 108 101 92 75 74 78 59 78 27 14 353 337 336 332 331
234 251 165 174 192 148 224 196 158 148 107 230 13 278 281 183 98 31 19 33 81 119 108 111 125 122 123 115 108 102 98 90 76 63 69 73 67 355 329 317 315 321 327 330
237 160 171 174 204 173 216 102 112 87 96 54 313 58 264 124 208 188 141 125 111 129 137 141 133 121 115 117 108 104 97 84 79 78 77 69 41 336 319 317 324 332 333 326
247 251 191 184 73 66 153 78 55 62 94 333 224 155 256 190 190 166 162 158 150 142 136 130 120 117 111 106 101 103 106 96 85 76 69 62 28 341 340 338 333 328 322 312
200 205 165 136 88 42 82 108 354 355 6 227 44 59 252 219 208 187 173 173 174 159 147 141 134 133 130 128 130 132 127 122 96 78 60 39 21 345 321 322 322 320 316 315
176 288 169 181 188 177 190 168 165 198 195 232 2 228 251 202 212 200 172 164 165 158 142 134 131 129 134 146 148 136 124 115 93 72 43 19 353 314 299 290 296 298 296 299
157 264 61 88 160 148 180 206 156 108 93 42 211 275 288 170 120 134 153 155 176 165 163 134 128 132 137 145 147 143 134 126 86 45 14 317 303 289 275 283 284 289 291 294
231 340 42 141 154 36 171 163 123 5 170 246 277 279 236 184 182 166 162 169 170 169 151 152 152 154 160 161 159 153 144 163 174 214 233 264 288 292 298 309 293 294 297 294
170 168 100 35 211 178 154 196 227 220 174 179 239 256 223 186 173 169 174 174 171 171 170 164 161 169 164 162 170 181 182 197 211 215 290 314 329 311 299 292 286 285 295 291
203 184 172 201 318 334 276 190 139 163 203 218 137 272 80 191 170 168 176 174 164 162 172 170 169 161 163 171 181 189 190 208 220 244 313 327 317 313 300 299 294 291 288 280
193 219 61 338 356 346 217 200 154 134 76 190 172 255 13 154 165 193 171 180 180 187 180 194 178 179 183 184 190 217 312 293 288 274 307 318 309 301 290 294 298 300 298 296
158 217 182 208 195 134 194 195 190 181 176 175 223 229 238 174 180 192 195 189 199 207 201 196 195 195 204 218 228 234 263 244 262 260 273 289 289 289 303 312 315 308 304 305
169 223 160 260 276 222 222 196 190 207 219 189 220 211 214 195 193 203 190 189 190 215 218 212 201 204 211 220 238 236 240 241 220 238 269 280 286 303 321 329 310 305 304 304
341 248 120 295 339 260 255 247 206 225 255 261 279 259 255 228 172 165 201 199 206 220 216 217 206 199 212 211 217 213 220 222 195 210 237 268 278 311 323 309 301 302 305 309
227 157 136 251 112 84 299 229 198 191 198 190 222 241 176 204 198 213 216 203 208 212 214 212 203 202 199 203 201 201 202 194 208 219 228 252 272 282 279 286 309 319 319 316
251 199 216 232 129 227 236 179 205 218 230 210 250 207 199 199 214 230 200 213 212 216 214 207 195 198 205 197 196 192 202 215 228 234 248 249 247 262 286 288 320 321 318 319
211 222 234 247 222 303 280 185 162 179 256 203 228 249 243 170 103 264 229 210 217 213 202 192 179 174 178 190 200 179 219 220 226 252 251 251 228 241 260 298 324 314 317 317
212 219 219 158 216 221 264 223 188 113 270 196 207 227 233 132 194 257 204 213 214 193 173 161 163 151 167 220 176 157 235 226 248 246 238 230 220 233 241 290 323 323 319 307
188 211 226 235 238 268 239 202 144 142 244 214 178 207 150 189 207 208 257 177 158 161 156 145 150 176 186 162 158 194 230 261 247 259 254 242 230 235 233 256 285 297 302 307
189 188 216 224 236 245 140 50 201 189 205 195 187 187 197 220 186 214 158 143 146 148 149 163 159 193 198 183 164 214 236 237 257 274 267 270 255 244 229 216 238 276 280 295
236 215 205 198 214 239 207 247 239 206 178 201 189 211 206 184 198 169 165 161 154 160 157 153 161 190 224 200 187 221 243 197 223 263 260 252 275 249 222 213 228 281 291 304
280 260 231 245 241 237 265 208 221 209 243 207 219 184 169 179 177 181 170 162 152 147 148 153 145 204 265 194 206 224 236 210 213 261 264 240 250 251 228 220 202 243 251 289
288 327 301 255 259 280 279 273 263 259 245 274 223 203 180 162 173 176 179 182 182 173 149 160 186 212 245 258 224 220 239 197 234 233 255 256 232 233 234 224 208 211 222 224
254 252 242 250 282 241 277 307 211 221 227 226 204 193 187 193 195 171 191 190 177 186 194 207 223 212 250 258 269 276 202 199 226 254 267 264 261 249 247 241 251 239 229 233